User: anonymous   Login
Location: Bishop's University Astronomical Observatory
(45.3661°N, 71.8475°W)
Time: 19:17:31
(UTC-05:00)
Language:

Meteor 2-5 Rocket - Orbit

View from above orbital plane
View from above orbital plane
View from above satellite
View from above satellite

Ground track
Ground track

The orbit data is extracted from the following two-line orbital elements,

1 11608U 79095B   17052.89312387 -.00000008  00000-0 -12509-4 0  9993
2 11608  81.2162 322.8945 0055355 125.5103 235.1247 14.06110504913875
Epoch (UTC): 21 February 2017 21:26:05
Eccentricity: 0.0055355
inclination: 81.2162°
perigee height: 832 km
apogee height: 913 km
right ascension of ascending node: 322.8945°
argument of perigee: 125.5103°
revolutions per day: 14.06110504
mean anomaly at epoch: 235.1247°
orbit number at epoch: 91387

The dashed part of the orbit path shows where the satellite is in the earth's shadow,  

DLR